Weather History for Punta Gorda, FL

Change the Weather History Date:

Wednesday, May 15, 2013

  Actual Average Record
Temperature  
Mean Temperature 72 °F -  
Max Temperature 88 °F 86 °F 91 °F (1999)
Min Temperature 57 °F 63 °F 57 °F (2013)
Cooling Degree Days 6    
Growing Degree Days 22 (Base 50)    
Moisture  
Dew Point 56 °F    
Average Humidity 60    
Maximum Humidity 93    
Minimum Humidity 34    
Precipitation  
Precipitation 0.00 in - - ()
Sea Level Pressure  
Sea Level Pressure 30.17 in    
Wind  
Wind Speed 6 mph (East)    
Max Wind Speed 13 mph    
Max Gust Speed 21 mph    
Visibility 10 miles    
Events      
Averages and records for this station are not official NWS values.
T = Trace of Precipitation, MM = Missing Value Source: NWS Daily Summary

Daily Weather History Graph

Daily Weather History Graph

Search for Another Location

Airport:

Trip Planner

Search our weather history database for the weather conditions in past years. The results will help you decide how hot, cold, wet, or windy it might be!

Date:

Astronomy

May. 15, 2013 Rise Set
Actual Time 6:40 AM EDT 8:08 PM EDT
Civil Twilight 6:14 AM EDT 8:34 PM EDT
Nautical Twilight 5:44 AM EDT 9:04 PM EDT
Astronomical Twilight 5:13 AM EDT 9:35 PM EDT
Moon 11:09 AM EDT (5/15) No Moon Set
Length of Visible Light 14h 19m
Length of Day
13h 28m
Waxing Crescent, 26% of the Moon is Illuminated
May 15
Waxing Crescent
May 18
First Quarter
May 25
Full
May 31
Last Quarter
Jun 8
New

Hourly Weather History & Observations

Time (EDT) Temp. Heat Index Dew Point Humidity Pressure Visibility Wind Dir Wind Speed Gust Speed Precip Events Conditions
12:53 AM 64.0 °F - 55.9 °F 75% 30.21 in 10.0 mi Calm Calm - N/A   Clear
1:53 AM 60.1 °F - 55.0 °F 83% 30.19 in 10.0 mi ENE 4.6 mph - N/A   Clear
2:53 AM 59.0 °F - 55.0 °F 87% 30.19 in 10.0 mi NE 5.8 mph - N/A   Clear
3:53 AM 59.0 °F - 55.0 °F 87% 30.19 in 10.0 mi ENE 3.5 mph - N/A   Clear
4:53 AM 57.0 °F - 55.0 °F 93% 30.19 in 10.0 mi NE 5.8 mph - N/A   Clear
5:53 AM 57.9 °F - 55.0 °F 90% 30.19 in 10.0 mi ENE 4.6 mph - N/A   Clear
6:53 AM 57.0 °F - 55.0 °F 93% 30.20 in 10.0 mi NE 4.6 mph - N/A   Clear
7:53 AM 63.0 °F - 57.9 °F 84% 30.21 in 10.0 mi ENE 4.6 mph - N/A   Clear
8:53 AM 72.0 °F - 59.0 °F 64% 30.22 in 10.0 mi ENE 4.6 mph - N/A   Clear
9:53 AM 77.0 °F - 57.0 °F 50% 30.23 in 10.0 mi East 9.2 mph - N/A   Clear
10:53 AM 81.0 °F 81.0 °F 57.0 °F 44% 30.22 in 10.0 mi Variable 6.9 mph - N/A   Clear
11:53 AM 81.0 °F 80.7 °F 55.0 °F 41% 30.22 in 10.0 mi Variable 5.8 mph - N/A   Partly Cloudy
12:53 PM 84.9 °F 83.7 °F 55.9 °F 37% 30.20 in 10.0 mi East 8.1 mph 17.3 mph N/A   Scattered Clouds
1:53 PM 84.9 °F 83.7 °F 55.9 °F 37% 30.17 in 10.0 mi East 10.4 mph 17.3 mph N/A   Scattered Clouds
2:53 PM 86.0 °F 84.7 °F 55.9 °F 36% 30.15 in 10.0 mi East 9.2 mph 20.7 mph N/A   Scattered Clouds
3:53 PM 86.0 °F 84.7 °F 55.9 °F 36% 30.13 in 10.0 mi ENE 12.7 mph 17.3 mph N/A   Mostly Cloudy
4:53 PM 84.9 °F 83.3 °F 54.0 °F 34% 30.12 in 10.0 mi East 10.4 mph 18.4 mph N/A   Partly Cloudy
5:53 PM 82.9 °F 82.1 °F 55.9 °F 39% 30.11 in 10.0 mi East 11.5 mph - N/A   Mostly Cloudy
6:44 PM 82.4 °F 81.7 °F 55.4 °F 39% 30.10 in 10.0 mi ESE 12.7 mph - N/A   Mostly Cloudy
6:53 PM 82.0 °F 81.7 °F 57.0 °F 42% 30.10 in 10.0 mi East 9.2 mph - N/A   Mostly Cloudy
7:53 PM 78.1 °F - 55.0 °F 45% 30.12 in 10.0 mi East 6.9 mph - N/A   Clear
8:53 PM 73.9 °F - 55.9 °F 53% 30.12 in 10.0 mi East 8.1 mph - N/A   Clear
9:53 PM 73.0 °F - 57.9 °F 59% 30.13 in 10.0 mi ESE 8.1 mph - N/A   Clear
10:53 PM 70.0 °F - 59.0 °F 68% 30.14 in 10.0 mi ESE 4.6 mph - N/A   Clear
11:53 PM 69.1 °F - 60.1 °F 73% 30.14 in 10.0 mi ESE 6.9 mph - N/A   Clear